CW3786 Weather Reports


Display with metric or nautical units.
time (UTC)temp
F
wind
direction
speed
MPH
gust
MPH
rain 1hr
in
rain 24hr
in
rain mn
in
humidity
%
barometer
mb
20260903071537 65 246 0.0 0.0 0.00 0.00 0.00 84 1007.0
20260903070032 65 275 0.0 0.0 0.00 0.00 0.00 83 1007.0
20260903064508 64 254 0.0 0.0 0.00 0.00 0.00 83 1007.0
20260903063028 64 254 0.0 0.0 0.00 0.00 0.00 82 1007.0
20260903061542 65 254 0.0 0.0 0.00 0.00 0.00 82 1007.0
20260903060022 66 254 0.0 0.0 0.00 0.00 0.00 81 1006.6
20260903054520 66 253 1.0 0.0 0.00 0.00 0.00 82 1006.5
20260903053006 66 263 2.0 0.0 0.00 0.00 0.00 82 1006.5
20260903051558 66 212 2.0 0.0 0.00 0.00 0.00 81 1006.5
20260903050056 66 261 3.0 0.0 0.00 0.00 0.00 81 1006.6
20260903044553 66 245 2.0 0.0 0.00 0.00 0.00 81 1006.6
20260903043036 66 250 3.0 0.0 0.00 0.00 0.00 79 1006.6
20260903041533 66 257 1.0 0.0 0.00 0.00 0.00 78 1006.8
20260903040018 66 230 0.0 0.0 0.00 0.00 0.00 79 1006.6
20260903034514 66 258 0.0 0.0 0.00 0.00 0.00 77 1006.5
20260903033052 66 221 0.0 0.0 0.00 0.00 0.00 76 1006.5
20260903031528 66 221 0.0 0.0 0.00 0.00 0.00 76 1006.5
20260903030026 66 213 0.0 0.0 0.00 0.00 0.00 75 1006.5
20260903024520 66 213 0.0 0.0 0.00 0.00 0.00 73 1006.2
20260903023018 67 209 0.0 0.0 0.00 0.00 0.00 72 1006.4
20260903021516 67 255 1.0 0.0 0.00 0.00 0.00 72 1006.3
20260903020039 67 237 1.0 0.0 0.00 0.00 0.00 71 1006.3
20260903014513 67 244 1.0 0.0 0.00 0.00 0.00 68 1006.2
20260903013009 68 263 1.0 0.0 0.00 0.00 0.00 68 1006.3
20260903011516 69 269 1.0 0.0 0.00 0.00 0.00 66 1006.2
20260903010105 70 215 1.0 0.0 0.00 0.00 0.00 66 1006.2
20260903004535 70 261 2.0 0.0 0.00 0.00 0.00 64 1006.1
20260903003017 71 198 4.0 0.0 0.00 0.00 0.00 66 1006.2
20260903001524 72 300 2.0 0.0 0.00 0.00 0.00 65 1006.4
20260903000021 71 220 4.0 0.0 0.00 0.00 0.00 65 1006.5
20260902234507 73 250 4.0 0.0 0.00 0.00 0.00 64 1006.5
20260902233031 74 281 3.0 0.0 0.00 0.00 0.00 63 1006.5
20260902231536 74 217 2.0 0.0 0.00 0.00 0.00 61 1006.6
20260902230059 75 274 2.0 0.0 0.00 0.00 0.00 60 1006.6
20260902224539 75 227 2.0 0.0 0.00 0.00 0.00 55 1006.8
20260902223046 75 265 2.0 0.0 0.00 0.00 0.00 50 1007.0
20260902221531 75 244 3.0 0.0 0.00 0.00 0.00 41 1007.1
20260902220021 76 258 2.0 0.0 0.00 0.00 0.00 45 1007.5
20260902214519 76 283 1.0 0.0 0.00 0.00 0.00 48 1007.6
20260902213011 75 239 2.0 0.0 0.00 0.00 0.00 52 1007.6
20260902211504 75 242 1.0 0.0 0.00 0.00 0.00 54 1007.7
20260902210057 75 277 2.0 0.0 0.00 0.00 0.00 52 1007.7
20260902210006 75 277 2.0 0.0 0.00 0.00 0.00 54 1007.8
20260902204545 75 285 1.0 0.0 0.00 0.00 0.00 52 1007.8
20260902203026 76 242 2.0 0.0 0.00 0.00 0.00 54 1007.8
20260902201505 76 260 1.0 0.0 0.00 0.00 0.00 56 1008.1
20260902200029 76 113 1.0 0.0 0.00 0.00 0.00 54 1008.1
20260902194537 76 296 2.0 0.0 0.00 0.00 0.00 55 1008.1
20260902193019 77 107 1.0 0.0 0.00 0.00 0.00 55 1008.4
20260902191551 78 125 0.0 0.0 0.00 0.00 0.00 52 1008.4
20260902190048 77 348 1.0 0.0 0.00 0.00 0.00 56 1008.6
20260902184529 77 229 1.0 0.0 0.00 0.00 0.00 55 1008.6
20260902183021 77 71 1.0 0.0 0.00 0.00 0.00 54 1008.6
20260902181556 76 102 1.0 0.0 0.00 0.00 0.00 55 1008.6
20260902180036 76 67 0.0 0.0 0.00 0.00 0.00 58 1008.6
20260902174513 76 69 1.0 0.0 0.00 0.00 0.00 57 1008.6
20260902173046 74 71 0.0 0.0 0.00 0.00 0.00 61 1008.6
20260902171546 72 70 1.0 0.0 0.00 0.00 0.00 68 1008.6
20260902170023 69 44 0.0 0.0 0.00 0.00 0.00 72 1008.5
20260902164508 67 9 0.0 0.0 0.00 0.00 0.00 76 1008.5
20260902163017 66 360 0.0 0.0 0.00 0.00 0.00 77 1008.5
20260902161551 65 360 0.0 0.0 0.00 0.00 0.00 82 1008.5
20260902160036 64 360 0.0 0.0 0.00 0.00 0.00 89 1008.5
20260902154524 63 355 0.0 0.0 0.00 0.00 0.00 91 1008.2
20260902153028 63 355 0.0 0.0 0.00 0.00 0.00 93 1008.3
20260902151518 62 355 0.0 0.0 0.00 0.00 0.00 94 1008.3
20260902150044 62 355 0.0 0.0 0.00 0.00 0.00 95 1008.3
20260902144528 62 351 0.0 0.0 0.00 0.00 0.00 95 1008.2
20260902143026 60 355 0.0 0.0 0.00 0.00 0.00 95 1008.1
20260902141601 60 355 0.0 0.0 0.00 0.00 0.00 94 1008.0
20260902141502 60 355 0.0 0.0 0.00 0.00 0.00 94 1007.9
20260902140033 59 355 0.0 0.0 0.00 0.00 0.00 94 1007.9
20260902134537 59 355 0.0 0.0 0.00 0.00 0.00 94 1007.7
20260902133048 59 355 0.0 0.0 0.00 0.00 0.00 94 1007.6
20260902131543 59 355 0.0 0.0 0.00 0.00 0.00 93 1007.6
20260902130035 59 355 0.0 0.0 0.00 0.00 0.00 93 1007.6
20260902124526 59 355 0.0 0.0 0.00 0.00 0.00 93 1007.5
20260902123054 59 355 0.0 0.0 0.00 0.00 0.00 93 1007.6
20260902121542 59 355 0.0 0.0 0.00 0.00 0.00 93 1007.6
20260902120018 59 355 0.0 0.0 0.00 0.00 0.00 92 1007.6
20260902114507 59 355 0.0 0.0 0.00 0.00 0.00 92 1007.6
20260902113027 59 355 0.0 0.0 0.00 0.00 0.00 91 1007.6
20260902111507 59 355 0.0 0.0 0.00 0.00 0.00 91 1007.6
20260902110100 59 355 0.0 0.0 0.00 0.00 0.00 91 1007.6
20260902104614 59 355 0.0 0.0 0.00 0.00 0.00 91 1007.6
20260902103042 59 355 0.0 0.0 0.00 0.00 0.00 91 1007.6
20260902101511 60 355 0.0 0.0 0.00 0.00 0.00 91 1007.8
20260902100109 60 355 0.0 0.0 0.00 0.00 0.00 91 1007.8
20260902094525 60 355 0.0 0.0 0.00 0.00 0.00 91 1007.9
20260902093115 60 355 0.0 0.0 0.00 0.00 0.00 91 1007.9
20260902093001 60 355 0.0 0.0 0.00 0.00 0.00 91 1008.0
20260902091537 59 355 0.0 0.0 0.00 0.00 0.00 91 1008.0
20260902090014 59 355 0.0 0.0 0.00 0.00 0.00 90 1008.1
20260902084511 59 355 0.0 0.0 0.00 0.00 0.00 90 1008.1
20260902083015 59 355 0.0 0.0 0.00 0.00 0.00 90 1008.1
20260902081612 59 355 0.0 0.0 0.00 0.00 0.00 90 1008.1
20260902080039 60 355 0.0 0.0 0.00 0.00 0.00 90 1008.1
20260902074515 59 355 0.0 0.0 0.00 0.00 0.00 89 1008.0
20260902073055 59 355 0.0 0.0 0.00 0.00 0.00 89 1008.0